When you browse on this site, cookies collect data to enhance your experience and personalize the content and advertising you see.
Visit our Privacy Policy to learn more. By continuing to use the site, you agree to this use of cookies and data.
  • In Spain
  • List of Countries
  • For 7 days
  • Water Temperature
  • Weather Map
  • Weather Widgets
  • user-avatar
    Login

    Hourly Weather Manaus

    Today, 20 February, Thursday

    Time Temperature Precipitation Wind Pressure Humidity
    00:00 +26°C° 0.2 mm 2 mps 753 mmHg 95%
    01:00 +26°C° 0.2 mm 2 mps 753 mmHg 95%
    02:00 +26°C° 0 mm 2 mps 752 mmHg 94%
    03:00 +26°C° 0 mm 2 mps 752 mmHg 94%
    04:00 +26°C° 0 mm 2 mps 752 mmHg 94%
    05:00 +26°C° 0 mm 2 mps 752 mmHg 94%
    06:00 +26°C° 0.1 mm 2 mps 752 mmHg 93%
    07:00 +26°C° 0.1 mm 2 mps 753 mmHg 92%
    08:00 +26°C° 0.1 mm 2 mps 753 mmHg 91%
    09:00 +27°C° 0.1 mm 2 mps 754 mmHg 89%
    10:00 +27°C° 0.1 mm 2 mps 754 mmHg 87%
    11:00 +28°C° 0.1 mm 2 mps 754 mmHg 84%
    12:00 +28°C° 0 mm 2 mps 753 mmHg 81%
    13:00 +29°C° 0 mm 2 mps 752 mmHg 77%
    14:00 +30°C° 0 mm 2 mps 751 mmHg 74%
    15:00 +30°C° 0 mm 2 mps 751 mmHg 73%
    16:00 +30°C° 0 mm 2 mps 751 mmHg 72%
    17:00 +30°C° 0 mm 1 mps 750 mmHg 71%
    18:00 +29°C° 0 mm 1 mps 751 mmHg 74%
    19:00 +29°C° 0 mm 1 mps 752 mmHg 76%
    20:00 +28°C° 0 mm 1 mps 752 mmHg 79%
    21:00 +26°C° 0 mm 0 mps 753 mmHg 79%
    22:00 +25°C° 0 mm 0 mps 753 mmHg 79%
    23:00 +25°C° 0 mm 0 mps 753 mmHg 80%

    Tomorrow, 21 February, Friday

    Time Temperature Precipitation Wind Pressure Humidity
    00:00 +27°C° 0 mm 1 mps 753 mmHg 81%
    01:00 +27°C° 0 mm 1 mps 752 mmHg 82%
    02:00 +27°C° 0 mm 1 mps 751 mmHg 83%
    09:00 +28°C° 1.3 mm 1 mps 754 mmHg 85%
    10:00 +28°C° 1.3 mm 1 mps 754 mmHg 86%
    11:00 +28°C° 1.3 mm 2 mps 755 mmHg 87%
    12:00 +29°C° 1.4 mm 2 mps 754 mmHg 87%
    13:00 +29°C° 1.4 mm 2 mps 753 mmHg 87%
    14:00 +30°C° 1.4 mm 2 mps 752 mmHg 87%
    15:00 +29°C° 0.8 mm 2 mps 752 mmHg 86%
    16:00 +29°C° 0.8 mm 2 mps 752 mmHg 86%
    17:00 +29°C° 0.8 mm 2 mps 752 mmHg 85%
    18:00 +28°C° 1.4 mm 2 mps 752 mmHg 88%
    19:00 +27°C° 1.4 mm 2 mps 753 mmHg 92%
    20:00 +26°C° 1.4 mm 2 mps 753 mmHg 95%
    21:00 +26°C° 0 mm 2 mps 754 mmHg 95%
    22:00 +26°C° 0 mm 2 mps 754 mmHg 96%
    23:00 +26°C° 0 mm 2 mps 754 mmHg 96%

    Day after tomorrow, 22 February, Saturday

    Time Temperature Precipitation Wind Pressure Humidity
    00:00 +25°C° 0.1 mm 2 mps 754 mmHg 96%
    01:00 +25°C° 0.1 mm 1 mps 753 mmHg 96%
    02:00 +25°C° 0.1 mm 1 mps 752 mmHg 96%
    03:00 +25°C° 0 mm 1 mps 752 mmHg 96%
    04:00 +25°C° 0 mm 1 mps 753 mmHg 96%
    05:00 +25°C° 0 mm 1 mps 753 mmHg 95%
    06:00 +25°C° 0 mm 1 mps 753 mmHg 94%
    07:00 +26°C° 0 mm 1 mps 754 mmHg 93%
    08:00 +26°C° 0 mm 1 mps 755 mmHg 91%
    09:00 +27°C° 0 mm 1 mps 755 mmHg 88%
    10:00 +27°C° 0 mm 2 mps 755 mmHg 85%
    11:00 +28°C° 0 mm 2 mps 755 mmHg 81%
    12:00 +29°C° 0 mm 2 mps 755 mmHg 78%
    13:00 +30°C° 0 mm 2 mps 754 mmHg 74%
    14:00 +31°C° 0 mm 2 mps 753 mmHg 71%
    15:00 +30°C° 0.1 mm 2 mps 753 mmHg 75%
    16:00 +30°C° 0.1 mm 1 mps 753 mmHg 79%
    17:00 +29°C° 0.1 mm 1 mps 752 mmHg 83%
    18:00 +28°C° 0 mm 1 mps 753 mmHg 85%
    19:00 +28°C° 0 mm 1 mps 753 mmHg 88%
    20:00 +27°C° 0 mm 1 mps 753 mmHg 90%
    21:00 +27°C° 0 mm 1 mps 754 mmHg 91%
    22:00 +27°C° 0 mm 1 mps 754 mmHg 91%
    23:00 +26°C° 0 mm 1 mps 754 mmHg 92%

    23 February, Sunday

    Time Temperature Precipitation Wind Pressure Humidity
    00:00 +26°C° 0 mm 1 mps 754 mmHg 92%
    01:00 +26°C° 0 mm 1 mps 753 mmHg 92%
    02:00 +26°C° 0 mm 1 mps 752 mmHg 92%
    03:00 +26°C° 0 mm 1 mps 752 mmHg 92%
    04:00 +26°C° 0 mm 1 mps 752 mmHg 92%
    05:00 +26°C° 0 mm 1 mps 753 mmHg 92%
    06:00 +26°C° 0.1 mm 1 mps 753 mmHg 91%
    07:00 +27°C° 0.1 mm 1 mps 754 mmHg 91%
    08:00 +27°C° 0.1 mm 1 mps 755 mmHg 90%
    09:00 +28°C° 1.1 mm 2 mps 754 mmHg 89%
    10:00 +29°C° 1.1 mm 2 mps 754 mmHg 88%
    11:00 +30°C° 1.1 mm 2 mps 754 mmHg 87%
    12:00 +31°C° 0.8 mm 2 mps 754 mmHg 83%
    13:00 +31°C° 0.8 mm 2 mps 753 mmHg 79%
    14:00 +32°C° 0.8 mm 1 mps 752 mmHg 75%
    15:00 +31°C° 0.2 mm 1 mps 752 mmHg 77%
    16:00 +31°C° 0.2 mm 1 mps 751 mmHg 78%
    17:00 +31°C° 0.2 mm 1 mps 751 mmHg 80%
    18:00 +30°C° 0.6 mm 1 mps 752 mmHg 84%
    19:00 +27°C° 0.6 mm 0 mps 752 mmHg 87%
    20:00 +26°C° 0.6 mm 0 mps 753 mmHg 91%
    21:00 +25°C° 1.1 mm 0 mps 753 mmHg 92%
    22:00 +27°C° 1.1 mm 1 mps 753 mmHg 93%
    23:00 +27°C° 1.1 mm 1 mps 754 mmHg 95%

    24 February, Monday

    Time Temperature Precipitation Wind Pressure Humidity
    00:00 +27°C° 0.2 mm 1 mps 753 mmHg 94%
    01:00 +27°C° 0.2 mm 1 mps 753 mmHg 94%
    02:00 +26°C° 0.2 mm 1 mps 752 mmHg 94%
    03:00 +26°C° 0.1 mm 1 mps 752 mmHg 94%
    04:00 +26°C° 0.1 mm 1 mps 752 mmHg 94%
    05:00 +26°C° 0.1 mm 1 mps 752 mmHg 94%
    06:00 +26°C° 0.5 mm 1 mps 753 mmHg 94%
    07:00 +26°C° 0.5 mm 1 mps 754 mmHg 95%
    08:00 +26°C° 0.5 mm 1 mps 754 mmHg 95%
    09:00 +27°C° 0.6 mm 1 mps 755 mmHg 93%
    10:00 +28°C° 0.6 mm 2 mps 755 mmHg 90%
    11:00 +29°C° 0.6 mm 2 mps 755 mmHg 87%
    12:00 +29°C° 1 mm 2 mps 754 mmHg 87%
    13:00 +30°C° 1 mm 2 mps 754 mmHg 86%
    14:00 +30°C° 1 mm 2 mps 753 mmHg 86%
    15:00 +29°C° 0.9 mm 1 mps 753 mmHg 88%
    16:00 +29°C° 0.9 mm 1 mps 753 mmHg 90%
    17:00 +29°C° 0.9 mm 1 mps 752 mmHg 92%
    18:00 +28°C° 0.2 mm 1 mps 753 mmHg 93%
    19:00 +27°C° 0.2 mm 1 mps 753 mmHg 94%
    20:00 +25°C° 0.2 mm 0 mps 753 mmHg 95%
    21:00 +24°C° 0 mm 0 mps 753 mmHg 95%
    22:00 +24°C° 0 mm 0 mps 754 mmHg 96%
    23:00 +24°C° 0 mm 0 mps 754 mmHg 96%

    25 February, Tuesday

    Time Temperature Precipitation Wind Pressure Humidity
    00:00 +24°C° 0 mm 0 mps 753 mmHg 96%
    01:00 +23°C° 0 mm 0 mps 753 mmHg 96%
    02:00 +23°C° 0 mm 0 mps 752 mmHg 97%
    03:00 +23°C° 0 mm 0 mps 752 mmHg 97%
    04:00 +23°C° 0 mm 0 mps 752 mmHg 97%
    05:00 +23°C° 0 mm 0 mps 752 mmHg 97%
    06:00 +24°C° 0 mm 0 mps 753 mmHg 95%
    07:00 +27°C° 0 mm 1 mps 754 mmHg 94%
    08:00 +27°C° 0 mm 1 mps 755 mmHg 92%
    09:00 +28°C° 1.3 mm 1 mps 755 mmHg 89%
    10:00 +29°C° 1.3 mm 1 mps 755 mmHg 87%
    11:00 +30°C° 1.3 mm 1 mps 755 mmHg 84%
    12:00 +31°C° 1 mm 2 mps 754 mmHg 82%
    13:00 +31°C° 1 mm 2 mps 753 mmHg 81%
    14:00 +31°C° 1 mm 2 mps 752 mmHg 79%
    15:00 +31°C° 0.2 mm 1 mps 752 mmHg 80%
    16:00 +31°C° 0.2 mm 1 mps 751 mmHg 81%
    17:00 +30°C° 0.2 mm 1 mps 750 mmHg 82%
    18:00 +29°C° 0.2 mm 1 mps 751 mmHg 86%
    19:00 +28°C° 0.2 mm 1 mps 751 mmHg 89%
    20:00 +27°C° 0.2 mm 1 mps 752 mmHg 92%
    21:00 +27°C° 0.6 mm 1 mps 752 mmHg 93%
    22:00 +27°C° 0.6 mm 1 mps 753 mmHg 94%
    23:00 +27°C° 0.6 mm 1 mps 753 mmHg 95%
    Show more